Current weather by "City, St" or "zip code"  
 
Advertise Here

Current Conditions: Franklin, Venango Regional Airport, PA

Overcast


34.0 F

Last Updated on Nov 23 2020, 10:56 pm EST
Humidity: 82%
Wind Speed: W 5.8 mph
Barometer 30.27 in
Dewpoint: 28.9 F
Visibility: 10.00 mi
Precip: --
Heat Index: NA
Wind Chill: 29 F
Current conditions at:

Franklin, Venango Regional Airport, PA (KFKL)

Lat: 41.38333 Lon: 79.86667

Local Radar Image active severe weather and emergency alerts image image weather storm and storm spotter reports image weather observation monitoring service image
Local
Radar
Active
Alerts
Storm Reports Obs
Monitoring

Sign-up For Email & Text Message Weather Alert Notification Services


Advertise Here

Observation History for Franklin, Venango Regional Airport, PA


Time Wind
(mph)
Vis
(mi)
Weather Precip (in) Temperature (F) Relative
Humidity
Wind
Chill
(F)
Heat
Index
(F)
Pressure
Air Dwpt altimeter
(in)
sea level
(mb)
Rmks
10:56 pm EST W 5.8 10.00 Overcast -- 34.0 28.9 82% 29 NA 30.27 1026.5
9:56 pm EST W 5.8 10.00 Overcast -- 35.0 28.9 78% 30 NA 30.26 1026.2
8:56 pm EST W 5.8 10.00 Overcast -- 35.0 28.9 78% 30 NA 30.26 1026.2
7:56 pm EST W 5.8 10.00 Overcast -- 35.0 30.0 82% 30 NA 30.26 1026.2
6:56 pm EST W 6.9 10.00 Overcast -- 36.0 30.0 79% 30 NA 30.25 1026.0
4:56 pm EST NW 8.1 10.00 Overcast -- 37.0 30.0 76% 31 NA 30.21 1024.6
3:56 pm EST W 9.2 10.00 Overcast -- 37.0 30.9 79% 30 NA 30.19 1024.0
2:56 pm EST W 9.2 G 18.4 10.00 Overcast -- 38.0 32.0 79% 32 NA 30.17 1023.1
1:56 pm EST W 9.2 10.00 Overcast Trace 37.0 35.1 93% 30 NA 30.16 1022.9
12:56 pm EST W 9.2 9.00 Overcast -- 37.0 36.0 96% 30 NA 30.16 1022.5
11:56 am EST SW 10.4 4.00 Fog/Mist Trace 34.0 33.1 97% 26 NA 30.17 1023.0
10:56 am EST SW 10.4 G 16.1 3.00 Fog/Mist Trace 33.0 32.0 96% 25 NA 30.18 1023.3
9:56 am EST W 15.0 G 19.6 6.00 Light Snow Fog/Mist Trace 34.0 32.0 92% 24 NA 30.17 1023.0
8:56 am EST SW 11.5 10.00 Overcast -- 34.0 33.1 97% 26 NA 30.16 1022.5
7:56 am EST W 9.2 10.00 Overcast -- 33.0 33.1 100% 25 NA 30.14 1021.9
6:56 am EST W 8.1 10.00 Overcast Trace 33.0 33.1 100% 26 NA 30.13 1021.6
5:56 am EST W 8.1 10.00 Overcast Trace 33.0 32.0 96% 26 NA 30.12 1021.0
4:56 am EST W 9.2 8.00 Light Rain Trace 33.0 32.0 96% 25 NA 30.10 1020.5
3:56 am EST W 8.1 4.00 Light Snow Fog/Mist Trace 33.0 32.0 96% 26 NA 30.10 1020.2
2:56 am EST W 12.7 G 20.7 9.00 Light Rain Trace 34.0 32.0 92% 25 NA 30.08 1019.7
1:56 am EST W 10.4 G 20.7 4.00 Fog/Mist -- 35.0 34.0 96% 27 NA 30.05 1018.5
12:56 am EST W 11.5 G 21.9 7.00 Overcast Trace 37.0 36.0 96% 29 NA 30.00 1016.9
11:56 pm EST NW 10.4 6.00 Fog/Mist Trace 39.0 37.9 96% 32 NA 29.97 1016.0

Regional Weather Observation


Franklin, Venango Regional Airport, PA (KFKL)

Overcast
34.0 F

Ashtabula - Northeast Ohio Regional Airport, OH (KHZY)

Mostly Cloudy
38.0 F

Youngstown, Youngstown-Warren Regional Airport, OH (KYNG)

Overcast
38.0 F

New Castle, New Castle Municipal Airport, PA (KUCP)

Overcast
37.0 F

Erie, Erie International Airport, PA (KERI)

A Few Clouds
40.0 F

Jamestown, Chautauqua County/Jamestown Airport, NY (KJHW)

Overcast
33.0 F